segment_id,date_local,uptime,ped_lft,ped_rgt,ped_total,bike_lft,bike_rgt,bike_total,car_lft,car_rgt,car_total,heavy_lft,heavy_rgt,heavy_total,v85,car_speed0,car_speed10,car_speed20,car_speed30,car_speed40,car_speed50,car_speed60,car_speed70
100024661,2015-08-01 00:00,1.0,,,,104,120,224,,,,,,,
100024661,2015-08-01 01:00,1.0,,,,96,97,193,,,,,,,
100024661,2015-08-01 02:00,1.0,,,,62,50,112,,,,,,,
100024661,2015-08-01 03:00,1.0,,,,44,24,68,,,,,,,
100024661,2015-08-01 04:00,1.0,,,,34,18,52,,,,,,,
100024661,2015-08-01 05:00,1.0,,,,29,15,44,,,,,,,
100024661,2015-08-01 06:00,1.0,,,,22,12,34,,,,,,,
100024661,2015-08-01 07:00,1.0,,,,33,33,66,,,,,,,
100024661,2015-08-01 08:00,1.0,,,,40,49,89,,,,,,,
100024661,2015-08-01 09:00,1.0,,,,128,78,206,,,,,,,
100024661,2015-08-01 10:00,1.0,,,,159,109,268,,,,,,,
100024661,2015-08-01 11:00,1.0,,,,157,132,289,,,,,,,
100024661,2015-08-01 12:00,1.0,,,,200,144,344,,,,,,,
100024661,2015-08-01 13:00,1.0,,,,237,235,472,,,,,,,
100024661,2015-08-01 14:00,1.0,,,,306,320,626,,,,,,,
100024661,2015-08-01 15:00,1.0,,,,247,304,551,,,,,,,
100024661,2015-08-01 16:00,1.0,,,,275,291,566,,,,,,,
100024661,2015-08-01 17:00,1.0,,,,312,320,632,,,,,,,
100024661,2015-08-01 18:00,1.0,,,,309,329,638,,,,,,,
100024661,2015-08-01 19:00,1.0,,,,261,311,572,,,,,,,
100024661,2015-08-01 20:00,1.0,,,,215,286,501,,,,,,,
100024661,2015-08-01 21:00,1.0,,,,168,219,387,,,,,,,
100024661,2015-08-01 22:00,1.0,,,,141,179,320,,,,,,,
100024661,2015-08-01 23:00,1.0,,,,168,144,312,,,,,,,
100024661,2015-08-02 00:00,1.0,,,,143,137,280,,,,,,,
100024661,2015-08-02 01:00,1.0,,,,108,109,217,,,,,,,
100024661,2015-08-02 02:00,1.0,,,,87,62,149,,,,,,,
100024661,2015-08-02 03:00,1.0,,,,44,45,89,,,,,,,
100024661,2015-08-02 04:00,1.0,,,,52,38,90,,,,,,,
100024661,2015-08-02 05:00,1.0,,,,31,17,48,,,,,,,
100024661,2015-08-02 06:00,1.0,,,,25,19,44,,,,,,,
100024661,2015-08-02 07:00,1.0,,,,35,20,55,,,,,,,
100024661,2015-08-02 08:00,1.0,,,,41,39,80,,,,,,,
100024661,2015-08-02 09:00,1.0,,,,116,72,188,,,,,,,
100024661,2015-08-02 10:00,1.0,,,,110,82,192,,,,,,,
100024661,2015-08-02 11:00,1.0,,,,154,123,277,,,,,,,
100024661,2015-08-02 12:00,1.0,,,,184,142,326,,,,,,,
100024661,2015-08-02 13:00,1.0,,,,200,143,343,,,,,,,
100024661,2015-08-02 14:00,1.0,,,,254,169,423,,,,,,,
100024661,2015-08-02 15:00,1.0,,,,211,227,438,,,,,,,
100024661,2015-08-02 16:00,1.0,,,,196,189,385,,,,,,,
100024661,2015-08-02 17:00,1.0,,,,189,193,382,,,,,,,
100024661,2015-08-02 18:00,1.0,,,,201,209,410,,,,,,,
100024661,2015-08-02 19:00,1.0,,,,180,269,449,,,,,,,
100024661,2015-08-02 20:00,1.0,,,,145,185,330,,,,,,,
100024661,2015-08-02 21:00,1.0,,,,144,158,302,,,,,,,
100024661,2015-08-02 22:00,1.0,,,,129,123,252,,,,,,,
100024661,2015-08-02 23:00,1.0,,,,103,125,228,,,,,,,
100024661,2015-08-03 00:00,1.0,,,,71,80,151,,,,,,,
100024661,2015-08-03 01:00,1.0,,,,41,39,80,,,,,,,
100024661,2015-08-03 02:00,1.0,,,,22,21,43,,,,,,,
100024661,2015-08-03 03:00,1.0,,,,16,10,26,,,,,,,
100024661,2015-08-03 04:00,1.0,,,,7,14,21,,,,,,,
100024661,2015-08-03 05:00,1.0,,,,25,27,52,,,,,,,
100024661,2015-08-03 06:00,1.0,,,,57,97,154,,,,,,,
100024661,2015-08-03 07:00,1.0,,,,154,233,387,,,,,,,
100024661,2015-08-03 08:00,1.0,,,,402,611,1013,,,,,,,
100024661,2015-08-03 09:00,1.0,,,,506,615,1121,,,,,,,
100024661,2015-08-03 10:00,1.0,,,,216,270,486,,,,,,,
100024661,2015-08-03 11:00,1.0,,,,209,208,417,,,,,,,
100024661,2015-08-03 12:00,1.0,,,,234,222,456,,,,,,,
100024661,2015-08-03 13:00,1.0,,,,233,241,474,,,,,,,
100024661,2015-08-03 14:00,1.0,,,,290,227,517,,,,,,,
100024661,2015-08-03 15:00,1.0,,,,328,279,607,,,,,,,
100024661,2015-08-03 16:00,1.0,,,,423,354,777,,,,,,,
100024661,2015-08-03 17:00,1.0,,,,513,439,952,,,,,,,
100024661,2015-08-03 18:00,1.0,,,,725,628,1353,,,,,,,
100024661,2015-08-03 19:00,1.0,,,,481,520,1001,,,,,,,
100024661,2015-08-03 20:00,1.0,,,,277,347,624,,,,,,,
100024661,2015-08-03 21:00,1.0,,,,240,238,478,,,,,,,
100024661,2015-08-03 22:00,1.0,,,,158,172,330,,,,,,,
100024661,2015-08-03 23:00,1.0,,,,138,156,294,,,,,,,
100024661,2015-08-04 00:00,1.0,,,,89,77,166,,,,,,,
100024661,2015-08-04 01:00,1.0,,,,45,53,98,,,,,,,
100024661,2015-08-04 02:00,1.0,,,,23,32,55,,,,,,,
100024661,2015-08-04 03:00,1.0,,,,23,15,38,,,,,,,
100024661,2015-08-04 04:00,1.0,,,,19,16,35,,,,,,,
100024661,2015-08-04 05:00,1.0,,,,20,26,46,,,,,,,
100024661,2015-08-04 06:00,1.0,,,,53,100,153,,,,,,,
100024661,2015-08-04 07:00,1.0,,,,165,277,442,,,,,,,
100024661,2015-08-04 08:00,1.0,,,,417,691,1108,,,,,,,
100024661,2015-08-04 09:00,1.0,,,,477,596,1073,,,,,,,
100024661,2015-08-04 10:00,1.0,,,,284,303,587,,,,,,,
100024661,2015-08-04 11:00,1.0,,,,239,221,460,,,,,,,
100024661,2015-08-04 12:00,1.0,,,,269,235,504,,,,,,,
100024661,2015-08-04 13:00,1.0,,,,245,228,473,,,,,,,
100024661,2015-08-04 14:00,1.0,,,,287,223,510,,,,,,,
100024661,2015-08-04 15:00,1.0,,,,341,271,612,,,,,,,
100024661,2015-08-04 16:00,1.0,,,,415,298,713,,,,,,,
100024661,2015-08-04 17:00,1.0,,,,583,435,1018,,,,,,,
100024661,2015-08-04 18:00,1.0,,,,727,649,1376,,,,,,,
100024661,2015-08-04 19:00,1.0,,,,494,571,1065,,,,,,,
100024661,2015-08-04 20:00,1.0,,,,296,377,673,,,,,,,
100024661,2015-08-04 21:00,1.0,,,,238,257,495,,,,,,,
100024661,2015-08-04 22:00,1.0,,,,206,193,399,,,,,,,
100024661,2015-08-04 23:00,1.0,,,,148,121,269,,,,,,,
100024661,2015-08-05 00:00,1.0,,,,82,90,172,,,,,,,
100024661,2015-08-05 01:00,1.0,,,,61,50,111,,,,,,,
100024661,2015-08-05 02:00,1.0,,,,27,24,51,,,,,,,
100024661,2015-08-05 03:00,1.0,,,,21,14,35,,,,,,,
100024661,2015-08-05 04:00,1.0,,,,9,15,24,,,,,,,
100024661,2015-08-05 05:00,1.0,,,,22,24,46,,,,,,,
100024661,2015-08-05 06:00,1.0,,,,48,87,135,,,,,,,
100024661,2015-08-05 07:00,1.0,,,,162,271,433,,,,,,,
100024661,2015-08-05 08:00,1.0,,,,388,673,1061,,,,,,,
100024661,2015-08-05 09:00,1.0,,,,515,600,1115,,,,,,,
100024661,2015-08-05 10:00,1.0,,,,301,268,569,,,,,,,
100024661,2015-08-05 11:00,1.0,,,,235,212,447,,,,,,,
100024661,2015-08-05 12:00,1.0,,,,247,213,460,,,,,,,
100024661,2015-08-05 13:00,1.0,,,,225,239,464,,,,,,,
100024661,2015-08-05 14:00,1.0,,,,281,278,559,,,,,,,
100024661,2015-08-05 15:00,1.0,,,,361,318,679,,,,,,,
100024661,2015-08-05 16:00,1.0,,,,409,355,764,,,,,,,
100024661,2015-08-05 17:00,1.0,,,,615,413,1028,,,,,,,
100024661,2015-08-05 18:00,1.0,,,,765,643,1408,,,,,,,
100024661,2015-08-05 19:00,1.0,,,,497,564,1061,,,,,,,
100024661,2015-08-05 20:00,1.0,,,,336,428,764,,,,,,,
100024661,2015-08-05 21:00,1.0,,,,244,264,508,,,,,,,
100024661,2015-08-05 22:00,1.0,,,,222,208,430,,,,,,,
100024661,2015-08-05 23:00,1.0,,,,199,182,381,,,,,,,
100024661,2015-08-06 00:00,1.0,,,,138,149,287,,,,,,,
100024661,2015-08-06 01:00,1.0,,,,65,58,123,,,,,,,
100024661,2015-08-06 02:00,1.0,,,,28,32,60,,,,,,,
100024661,2015-08-06 03:00,1.0,,,,25,31,56,,,,,,,
100024661,2015-08-06 04:00,1.0,,,,9,15,24,,,,,,,
100024661,2015-08-06 05:00,1.0,,,,27,48,75,,,,,,,
100024661,2015-08-06 06:00,1.0,,,,57,96,153,,,,,,,
100024661,2015-08-06 07:00,1.0,,,,167,282,449,,,,,,,
100024661,2015-08-06 08:00,1.0,,,,366,670,1036,,,,,,,
100024661,2015-08-06 09:00,1.0,,,,526,619,1145,,,,,,,
100024661,2015-08-06 10:00,1.0,,,,290,260,550,,,,,,,
100024661,2015-08-06 11:00,1.0,,,,218,169,387,,,,,,,
100024661,2015-08-06 12:00,1.0,,,,239,244,483,,,,,,,
100024661,2015-08-06 13:00,1.0,,,,289,255,544,,,,,,,
100024661,2015-08-06 14:00,1.0,,,,277,250,527,,,,,,,
100024661,2015-08-06 15:00,1.0,,,,324,293,617,,,,,,,
100024661,2015-08-06 16:00,1.0,,,,448,331,779,,,,,,,
100024661,2015-08-06 17:00,1.0,,,,563,438,1001,,,,,,,
100024661,2015-08-06 18:00,1.0,,,,668,607,1275,,,,,,,
100024661,2015-08-06 19:00,1.0,,,,518,535,1053,,,,,,,
100024661,2015-08-06 20:00,1.0,,,,304,419,723,,,,,,,
100024661,2015-08-06 21:00,1.0,,,,206,241,447,,,,,,,
100024661,2015-08-06 22:00,1.0,,,,196,217,413,,,,,,,
100024661,2015-08-06 23:00,1.0,,,,203,190,393,,,,,,,
100024661,2015-08-07 00:00,1.0,,,,153,119,272,,,,,,,
100024661,2015-08-07 01:00,1.0,,,,111,87,198,,,,,,,
100024661,2015-08-07 02:00,1.0,,,,69,37,106,,,,,,,
100024661,2015-08-07 03:00,1.0,,,,44,22,66,,,,,,,
100024661,2015-08-07 04:00,1.0,,,,40,17,57,,,,,,,
100024661,2015-08-07 05:00,1.0,,,,42,35,77,,,,,,,
100024661,2015-08-07 06:00,1.0,,,,45,92,137,,,,,,,
100024661,2015-08-07 07:00,1.0,,,,165,249,414,,,,,,,
100024661,2015-08-07 08:00,1.0,,,,351,525,876,,,,,,,
100024661,2015-08-07 09:00,1.0,,,,403,442,845,,,,,,,
100024661,2015-08-07 10:00,1.0,,,,265,225,490,,,,,,,
100024661,2015-08-07 11:00,1.0,,,,203,194,397,,,,,,,
100024661,2015-08-07 12:00,1.0,,,,224,176,400,,,,,,,
100024661,2015-08-07 13:00,1.0,,,,244,212,456,,,,,,,
100024661,2015-08-07 14:00,1.0,,,,268,222,490,,,,,,,
100024661,2015-08-07 15:00,1.0,,,,328,214,542,,,,,,,
100024661,2015-08-07 16:00,1.0,,,,412,293,705,,,,,,,
100024661,2015-08-07 17:00,1.0,,,,388,333,721,,,,,,,
100024661,2015-08-07 18:00,1.0,,,,440,421,861,,,,,,,
100024661,2015-08-07 19:00,1.0,,,,345,347,692,,,,,,,
100024661,2015-08-07 20:00,1.0,,,,221,356,577,,,,,,,
100024661,2015-08-07 21:00,1.0,,,,171,207,378,,,,,,,
100024661,2015-08-07 22:00,1.0,,,,161,154,315,,,,,,,
100024661,2015-08-07 23:00,1.0,,,,152,142,294,,,,,,,
100024661,2015-08-08 00:00,1.0,,,,171,157,328,,,,,,,
100024661,2015-08-08 01:00,1.0,,,,115,109,224,,,,,,,
100024661,2015-08-08 02:00,1.0,,,,104,78,182,,,,,,,
100024661,2015-08-08 03:00,1.0,,,,49,56,105,,,,,,,
100024661,2015-08-08 04:00,1.0,,,,31,20,51,,,,,,,
100024661,2015-08-08 05:00,1.0,,,,28,23,51,,,,,,,
100024661,2015-08-08 06:00,1.0,,,,30,20,50,,,,,,,
100024661,2015-08-08 07:00,1.0,,,,52,38,90,,,,,,,
100024661,2015-08-08 08:00,1.0,,,,60,37,97,,,,,,,
100024661,2015-08-08 09:00,1.0,,,,117,83,200,,,,,,,
100024661,2015-08-08 10:00,1.0,,,,138,96,234,,,,,,,
100024661,2015-08-08 11:00,1.0,,,,186,128,314,,,,,,,
100024661,2015-08-08 12:00,1.0,,,,162,161,323,,,,,,,
100024661,2015-08-08 13:00,1.0,,,,196,173,369,,,,,,,
100024661,2015-08-08 14:00,1.0,,,,241,251,492,,,,,,,
100024661,2015-08-08 15:00,1.0,,,,224,201,425,,,,,,,
100024661,2015-08-08 16:00,1.0,,,,224,283,507,,,,,,,
100024661,2015-08-08 17:00,1.0,,,,230,229,459,,,,,,,
100024661,2015-08-08 18:00,1.0,,,,217,265,482,,,,,,,
100024661,2015-08-08 19:00,1.0,,,,228,272,500,,,,,,,
100024661,2015-08-08 20:00,1.0,,,,181,267,448,,,,,,,
100024661,2015-08-08 21:00,1.0,,,,119,172,291,,,,,,,
100024661,2015-08-08 22:00,1.0,,,,100,139,239,,,,,,,
100024661,2015-08-08 23:00,1.0,,,,149,156,305,,,,,,,
100024661,2015-08-09 00:00,1.0,,,,97,119,216,,,,,,,
100024661,2015-08-09 01:00,1.0,,,,105,82,187,,,,,,,
100024661,2015-08-09 02:00,1.0,,,,63,69,132,,,,,,,
100024661,2015-08-09 03:00,1.0,,,,43,48,91,,,,,,,
100024661,2015-08-09 04:00,1.0,,,,54,26,80,,,,,,,
100024661,2015-08-09 05:00,1.0,,,,32,24,56,,,,,,,
100024661,2015-08-09 06:00,1.0,,,,30,16,46,,,,,,,
100024661,2015-08-09 07:00,1.0,,,,35,18,53,,,,,,,
100024661,2015-08-09 08:00,1.0,,,,54,34,88,,,,,,,
100024661,2015-08-09 09:00,1.0,,,,99,60,159,,,,,,,
100024661,2015-08-09 10:00,1.0,,,,104,120,224,,,,,,,
100024661,2015-08-09 11:00,1.0,,,,148,130,278,,,,,,,
100024661,2015-08-09 12:00,1.0,,,,151,136,287,,,,,,,
100024661,2015-08-09 13:00,1.0,,,,217,168,385,,,,,,,
100024661,2015-08-09 14:00,1.0,,,,190,178,368,,,,,,,
100024661,2015-08-09 15:00,1.0,,,,205,194,399,,,,,,,
100024661,2015-08-09 16:00,1.0,,,,200,230,430,,,,,,,
100024661,2015-08-09 17:00,1.0,,,,166,212,378,,,,,,,
100024661,2015-08-09 18:00,1.0,,,,214,244,458,,,,,,,
100024661,2015-08-09 19:00,1.0,,,,208,219,427,,,,,,,
100024661,2015-08-09 20:00,1.0,,,,181,213,394,,,,,,,
100024661,2015-08-09 21:00,1.0,,,,112,160,272,,,,,,,
100024661,2015-08-09 22:00,1.0,,,,142,132,274,,,,,,,
100024661,2015-08-09 23:00,1.0,,,,94,94,188,,,,,,,
100024661,2015-08-10 00:00,1.0,,,,65,74,139,,,,,,,
100024661,2015-08-10 01:00,1.0,,,,42,41,83,,,,,,,
100024661,2015-08-10 02:00,1.0,,,,30,25,55,,,,,,,
100024661,2015-08-10 03:00,1.0,,,,11,14,25,,,,,,,
100024661,2015-08-10 04:00,1.0,,,,4,12,16,,,,,,,
100024661,2015-08-10 05:00,1.0,,,,23,39,62,,,,,,,
100024661,2015-08-10 06:00,1.0,,,,53,110,163,,,,,,,
100024661,2015-08-10 07:00,1.0,,,,154,276,430,,,,,,,
100024661,2015-08-10 08:00,1.0,,,,431,679,1110,,,,,,,
100024661,2015-08-10 09:00,1.0,,,,474,595,1069,,,,,,,
100024661,2015-08-10 10:00,1.0,,,,233,222,455,,,,,,,
100024661,2015-08-10 11:00,1.0,,,,203,231,434,,,,,,,
100024661,2015-08-10 12:00,1.0,,,,182,197,379,,,,,,,
100024661,2015-08-10 13:00,1.0,,,,223,231,454,,,,,,,
100024661,2015-08-10 14:00,1.0,,,,267,242,509,,,,,,,
100024661,2015-08-10 15:00,1.0,,,,335,259,594,,,,,,,
100024661,2015-08-10 16:00,1.0,,,,402,346,748,,,,,,,
100024661,2015-08-10 17:00,1.0,,,,588,386,974,,,,,,,
100024661,2015-08-10 18:00,1.0,,,,742,614,1356,,,,,,,
100024661,2015-08-10 19:00,1.0,,,,440,509,949,,,,,,,
100024661,2015-08-10 20:00,1.0,,,,292,365,657,,,,,,,
100024661,2015-08-10 21:00,1.0,,,,204,237,441,,,,,,,
100024661,2015-08-10 22:00,1.0,,,,176,129,305,,,,,,,
100024661,2015-08-10 23:00,1.0,,,,124,126,250,,,,,,,
100024661,2015-08-11 00:00,1.0,,,,88,83,171,,,,,,,
100024661,2015-08-11 01:00,1.0,,,,43,50,93,,,,,,,
100024661,2015-08-11 02:00,1.0,,,,26,25,51,,,,,,,
100024661,2015-08-11 03:00,1.0,,,,12,18,30,,,,,,,
100024661,2015-08-11 04:00,1.0,,,,10,18,28,,,,,,,
100024661,2015-08-11 05:00,1.0,,,,18,41,59,,,,,,,
100024661,2015-08-11 06:00,1.0,,,,61,122,183,,,,,,,
100024661,2015-08-11 07:00,1.0,,,,170,293,463,,,,,,,
100024661,2015-08-11 08:00,1.0,,,,428,710,1138,,,,,,,
100024661,2015-08-11 09:00,1.0,,,,547,626,1173,,,,,,,
100024661,2015-08-11 10:00,1.0,,,,274,266,540,,,,,,,
100024661,2015-08-11 11:00,1.0,,,,232,238,470,,,,,,,
100024661,2015-08-11 12:00,1.0,,,,239,208,447,,,,,,,
100024661,2015-08-11 13:00,1.0,,,,230,220,450,,,,,,,
100024661,2015-08-11 14:00,1.0,,,,281,261,542,,,,,,,
100024661,2015-08-11 15:00,1.0,,,,325,302,627,,,,,,,
100024661,2015-08-11 16:00,1.0,,,,435,330,765,,,,,,,
100024661,2015-08-11 17:00,1.0,,,,574,459,1033,,,,,,,
100024661,2015-08-11 18:00,1.0,,,,703,579,1282,,,,,,,
100024661,2015-08-11 19:00,1.0,,,,482,557,1039,,,,,,,
100024661,2015-08-11 20:00,1.0,,,,290,382,672,,,,,,,
100024661,2015-08-11 21:00,1.0,,,,220,222,442,,,,,,,
100024661,2015-08-11 22:00,1.0,,,,202,192,394,,,,,,,
100024661,2015-08-11 23:00,1.0,,,,188,147,335,,,,,,,
100024661,2015-08-12 00:00,1.0,,,,114,113,227,,,,,,,
100024661,2015-08-12 01:00,1.0,,,,71,62,133,,,,,,,
100024661,2015-08-12 02:00,1.0,,,,27,21,48,,,,,,,
100024661,2015-08-12 03:00,1.0,,,,17,19,36,,,,,,,
100024661,2015-08-12 04:00,1.0,,,,8,20,28,,,,,,,
100024661,2015-08-12 05:00,1.0,,,,14,45,59,,,,,,,
100024661,2015-08-12 06:00,1.0,,,,61,126,187,,,,,,,
100024661,2015-08-12 07:00,1.0,,,,156,283,439,,,,,,,
100024661,2015-08-12 08:00,1.0,,,,470,698,1168,,,,,,,
100024661,2015-08-12 09:00,1.0,,,,526,635,1161,,,,,,,
100024661,2015-08-12 10:00,1.0,,,,232,239,471,,,,,,,
100024661,2015-08-12 11:00,1.0,,,,237,181,418,,,,,,,
100024661,2015-08-12 12:00,1.0,,,,238,204,442,,,,,,,
100024661,2015-08-12 13:00,1.0,,,,226,261,487,,,,,,,
100024661,2015-08-12 14:00,1.0,,,,323,276,599,,,,,,,
100024661,2015-08-12 15:00,1.0,,,,350,305,655,,,,,,,
100024661,2015-08-12 16:00,1.0,,,,426,341,767,,,,,,,
100024661,2015-08-12 17:00,1.0,,,,579,454,1033,,,,,,,
100024661,2015-08-12 18:00,1.0,,,,739,673,1412,,,,,,,
100024661,2015-08-12 19:00,1.0,,,,480,496,976,,,,,,,
100024661,2015-08-12 20:00,1.0,,,,314,387,701,,,,,,,
100024661,2015-08-12 21:00,1.0,,,,216,235,451,,,,,,,
100024661,2015-08-12 22:00,1.0,,,,170,165,335,,,,,,,
100024661,2015-08-12 23:00,1.0,,,,167,165,332,,,,,,,
100024661,2015-08-13 00:00,1.0,,,,126,120,246,,,,,,,
100024661,2015-08-13 01:00,1.0,,,,63,58,121,,,,,,,
100024661,2015-08-13 02:00,1.0,,,,30,25,55,,,,,,,
100024661,2015-08-13 03:00,1.0,,,,17,15,32,,,,,,,
100024661,2015-08-13 04:00,1.0,,,,13,17,30,,,,,,,
100024661,2015-08-13 05:00,1.0,,,,22,50,72,,,,,,,
100024661,2015-08-13 06:00,1.0,,,,65,116,181,,,,,,,
100024661,2015-08-13 07:00,1.0,,,,153,258,411,,,,,,,
100024661,2015-08-13 08:00,1.0,,,,408,673,1081,,,,,,,
100024661,2015-08-13 09:00,1.0,,,,502,598,1100,,,,,,,
100024661,2015-08-13 10:00,1.0,,,,258,209,467,,,,,,,
100024661,2015-08-13 11:00,1.0,,,,220,204,424,,,,,,,
100024661,2015-08-13 12:00,1.0,,,,225,225,450,,,,,,,
100024661,2015-08-13 13:00,1.0,,,,247,261,508,,,,,,,
100024661,2015-08-13 14:00,1.0,,,,297,284,581,,,,,,,
100024661,2015-08-13 15:00,1.0,,,,366,309,675,,,,,,,
100024661,2015-08-13 16:00,1.0,,,,441,339,780,,,,,,,
100024661,2015-08-13 17:00,1.0,,,,564,428,992,,,,,,,
100024661,2015-08-13 18:00,1.0,,,,669,638,1307,,,,,,,
100024661,2015-08-13 19:00,1.0,,,,481,539,1020,,,,,,,
100024661,2015-08-13 20:00,1.0,,,,312,398,710,,,,,,,
100024661,2015-08-13 21:00,1.0,,,,235,260,495,,,,,,,
100024661,2015-08-13 22:00,1.0,,,,209,226,435,,,,,,,
100024661,2015-08-13 23:00,1.0,,,,201,190,391,,,,,,,
100024661,2015-08-14 00:00,1.0,,,,125,118,243,,,,,,,
100024661,2015-08-14 01:00,1.0,,,,89,85,174,,,,,,,
100024661,2015-08-14 02:00,1.0,,,,53,42,95,,,,,,,
100024661,2015-08-14 03:00,1.0,,,,22,21,43,,,,,,,
100024661,2015-08-14 04:00,1.0,,,,18,24,42,,,,,,,
100024661,2015-08-14 05:00,1.0,,,,31,45,76,,,,,,,
100024661,2015-08-14 06:00,1.0,,,,60,111,171,,,,,,,
100024661,2015-08-14 07:00,1.0,,,,142,213,355,,,,,,,
100024661,2015-08-14 08:00,1.0,,,,373,553,926,,,,,,,
100024661,2015-08-14 09:00,1.0,,,,400,503,903,,,,,,,
100024661,2015-08-14 10:00,1.0,,,,242,249,491,,,,,,,
100024661,2015-08-14 11:00,1.0,,,,221,226,447,,,,,,,
100024661,2015-08-14 12:00,1.0,,,,261,247,508,,,,,,,
100024661,2015-08-14 13:00,1.0,,,,220,253,473,,,,,,,
100024661,2015-08-14 14:00,1.0,,,,283,264,547,,,,,,,
100024661,2015-08-14 15:00,1.0,,,,398,278,676,,,,,,,
100024661,2015-08-14 16:00,1.0,,,,444,310,754,,,,,,,
100024661,2015-08-14 17:00,1.0,,,,464,412,876,,,,,,,
100024661,2015-08-14 18:00,1.0,,,,438,461,899,,,,,,,
100024661,2015-08-14 19:00,1.0,,,,329,408,737,,,,,,,
100024661,2015-08-14 20:00,1.0,,,,256,333,589,,,,,,,
100024661,2015-08-14 21:00,1.0,,,,126,218,344,,,,,,,
100024661,2015-08-14 22:00,1.0,,,,163,182,345,,,,,,,
100024661,2015-08-14 23:00,1.0,,,,167,146,313,,,,,,,
100024661,2015-08-15 00:00,1.0,,,,136,125,261,,,,,,,
100024661,2015-08-15 01:00,1.0,,,,111,103,214,,,,,,,
100024661,2015-08-15 02:00,1.0,,,,92,82,174,,,,,,,
100024661,2015-08-15 03:00,1.0,,,,62,35,97,,,,,,,
100024661,2015-08-15 04:00,1.0,,,,31,19,50,,,,,,,
100024661,2015-08-15 05:00,1.0,,,,32,18,50,,,,,,,
100024661,2015-08-15 06:00,1.0,,,,17,30,47,,,,,,,
100024661,2015-08-15 07:00,1.0,,,,41,36,77,,,,,,,
100024661,2015-08-15 08:00,1.0,,,,55,39,94,,,,,,,
100024661,2015-08-15 09:00,1.0,,,,120,78,198,,,,,,,
100024661,2015-08-15 10:00,1.0,,,,158,100,258,,,,,,,
100024661,2015-08-15 11:00,1.0,,,,185,149,334,,,,,,,
100024661,2015-08-15 12:00,1.0,,,,135,159,294,,,,,,,
100024661,2015-08-15 13:00,1.0,,,,207,186,393,,,,,,,
100024661,2015-08-15 14:00,1.0,,,,224,207,431,,,,,,,
100024661,2015-08-15 15:00,1.0,,,,239,228,467,,,,,,,
100024661,2015-08-15 16:00,1.0,,,,198,224,422,,,,,,,
100024661,2015-08-15 17:00,1.0,,,,233,221,454,,,,,,,
100024661,2015-08-15 18:00,1.0,,,,235,288,523,,,,,,,
100024661,2015-08-15 19:00,1.0,,,,196,235,431,,,,,,,
100024661,2015-08-15 20:00,1.0,,,,140,279,419,,,,,,,
100024661,2015-08-15 21:00,1.0,,,,110,155,265,,,,,,,
100024661,2015-08-15 22:00,1.0,,,,103,150,253,,,,,,,
100024661,2015-08-15 23:00,1.0,,,,99,130,229,,,,,,,
100024661,2015-08-16 00:00,1.0,,,,121,121,242,,,,,,,
100024661,2015-08-16 01:00,1.0,,,,107,82,189,,,,,,,
100024661,2015-08-16 02:00,1.0,,,,67,55,122,,,,,,,
100024661,2015-08-16 03:00,1.0,,,,63,53,116,,,,,,,
100024661,2015-08-16 04:00,1.0,,,,47,21,68,,,,,,,
100024661,2015-08-16 05:00,1.0,,,,40,27,67,,,,,,,
100024661,2015-08-16 06:00,1.0,,,,24,21,45,,,,,,,
100024661,2015-08-16 07:00,1.0,,,,37,29,66,,,,,,,
100024661,2015-08-16 08:00,1.0,,,,52,21,73,,,,,,,
100024661,2015-08-16 09:00,1.0,,,,80,62,142,,,,,,,
100024661,2015-08-16 10:00,1.0,,,,93,84,177,,,,,,,
100024661,2015-08-16 11:00,1.0,,,,114,151,265,,,,,,,
100024661,2015-08-16 12:00,1.0,,,,120,134,254,,,,,,,
100024661,2015-08-16 13:00,1.0,,,,167,179,346,,,,,,,
100024661,2015-08-16 14:00,1.0,,,,182,225,407,,,,,,,
100024661,2015-08-16 15:00,1.0,,,,192,183,375,,,,,,,
100024661,2015-08-16 16:00,1.0,,,,227,212,439,,,,,,,
100024661,2015-08-16 17:00,1.0,,,,239,234,473,,,,,,,
100024661,2015-08-16 18:00,1.0,,,,146,169,315,,,,,,,
100024661,2015-08-16 19:00,1.0,,,,75,75,150,,,,,,,
100024661,2015-08-16 20:00,1.0,,,,39,31,70,,,,,,,
100024661,2015-08-16 21:00,1.0,,,,39,50,89,,,,,,,
100024661,2015-08-16 22:00,1.0,,,,51,63,114,,,,,,,
100024661,2015-08-16 23:00,1.0,,,,32,34,66,,,,,,,
100024661,2015-08-17 00:00,1.0,,,,24,24,48,,,,,,,
100024661,2015-08-17 01:00,1.0,,,,18,17,35,,,,,,,
100024661,2015-08-17 02:00,1.0,,,,5,11,16,,,,,,,
100024661,2015-08-17 03:00,1.0,,,,4,8,12,,,,,,,
100024661,2015-08-17 04:00,1.0,,,,8,12,20,,,,,,,
100024661,2015-08-17 05:00,1.0,,,,18,28,46,,,,,,,
100024661,2015-08-17 06:00,1.0,,,,41,97,138,,,,,,,
100024661,2015-08-17 07:00,1.0,,,,130,216,346,,,,,,,
100024661,2015-08-17 08:00,1.0,,,,407,653,1060,,,,,,,
100024661,2015-08-17 09:00,1.0,,,,441,570,1011,,,,,,,
100024661,2015-08-17 10:00,1.0,,,,220,231,451,,,,,,,
100024661,2015-08-17 11:00,1.0,,,,190,193,383,,,,,,,
100024661,2015-08-17 12:00,1.0,,,,207,215,422,,,,,,,
100024661,2015-08-17 13:00,1.0,,,,206,227,433,,,,,,,
100024661,2015-08-17 14:00,1.0,,,,303,222,525,,,,,,,
100024661,2015-08-17 15:00,1.0,,,,316,281,597,,,,,,,
100024661,2015-08-17 16:00,1.0,,,,361,307,668,,,,,,,
100024661,2015-08-17 17:00,1.0,,,,557,413,970,,,,,,,
100024661,2015-08-17 18:00,1.0,,,,632,597,1229,,,,,,,
100024661,2015-08-17 19:00,1.0,,,,437,506,943,,,,,,,
100024661,2015-08-17 20:00,1.0,,,,279,328,607,,,,,,,
100024661,2015-08-17 21:00,1.0,,,,152,201,353,,,,,,,
100024661,2015-08-17 22:00,1.0,,,,141,124,265,,,,,,,
100024661,2015-08-17 23:00,1.0,,,,95,104,199,,,,,,,
100024661,2015-08-18 00:00,1.0,,,,66,72,138,,,,,,,
100024661,2015-08-18 01:00,1.0,,,,33,38,71,,,,,,,
100024661,2015-08-18 02:00,1.0,,,,15,21,36,,,,,,,
100024661,2015-08-18 03:00,1.0,,,,9,15,24,,,,,,,
100024661,2015-08-18 04:00,1.0,,,,17,12,29,,,,,,,
100024661,2015-08-18 05:00,1.0,,,,19,38,57,,,,,,,
100024661,2015-08-18 06:00,1.0,,,,57,114,171,,,,,,,
100024661,2015-08-18 07:00,1.0,,,,145,263,408,,,,,,,
100024661,2015-08-18 08:00,1.0,,,,455,681,1136,,,,,,,
100024661,2015-08-18 09:00,1.0,,,,528,604,1132,,,,,,,
100024661,2015-08-18 10:00,1.0,,,,257,186,443,,,,,,,
100024661,2015-08-18 11:00,1.0,,,,258,218,476,,,,,,,
100024661,2015-08-18 12:00,1.0,,,,227,216,443,,,,,,,
100024661,2015-08-18 13:00,1.0,,,,272,278,550,,,,,,,
100024661,2015-08-18 14:00,1.0,,,,256,274,530,,,,,,,
100024661,2015-08-18 15:00,1.0,,,,335,317,652,,,,,,,
100024661,2015-08-18 16:00,1.0,,,,431,355,786,,,,,,,
100024661,2015-08-18 17:00,1.0,,,,583,454,1037,,,,,,,
100024661,2015-08-18 18:00,1.0,,,,706,630,1336,,,,,,,
100024661,2015-08-18 19:00,1.0,,,,492,470,962,,,,,,,
100024661,2015-08-18 20:00,1.0,,,,289,358,647,,,,,,,
100024661,2015-08-18 21:00,1.0,,,,194,187,381,,,,,,,
100024661,2015-08-18 22:00,1.0,,,,153,170,323,,,,,,,
100024661,2015-08-18 23:00,1.0,,,,143,131,274,,,,,,,
100024661,2015-08-19 00:00,1.0,,,,75,103,178,,,,,,,
100024661,2015-08-19 01:00,1.0,,,,29,38,67,,,,,,,
100024661,2015-08-19 02:00,1.0,,,,25,27,52,,,,,,,
100024661,2015-08-19 03:00,1.0,,,,10,14,24,,,,,,,
100024661,2015-08-19 04:00,1.0,,,,9,12,21,,,,,,,
100024661,2015-08-19 05:00,1.0,,,,20,43,63,,,,,,,
100024661,2015-08-19 06:00,1.0,,,,52,114,166,,,,,,,
100024661,2015-08-19 07:00,1.0,,,,157,265,422,,,,,,,
100024661,2015-08-19 08:00,1.0,,,,415,675,1090,,,,,,,
100024661,2015-08-19 09:00,1.0,,,,504,614,1118,,,,,,,
100024661,2015-08-19 10:00,1.0,,,,236,251,487,,,,,,,
100024661,2015-08-19 11:00,1.0,,,,211,188,399,,,,,,,
100024661,2015-08-19 12:00,1.0,,,,97,221,318,,,,,,,
100024661,2015-08-19 13:00,1.0,,,,260,231,491,,,,,,,